• In Deutschland
  • Länderverzeichnis
  • Für 7 Tage
  • Wassertemperatur
  • Satellitenkarten
  • Wetterkarte
  • Widgets
  • user-avatar
    Anmelden

    Stündliche Wetter Barisal

    Heute, 26 Juni, Montag

    Zeit Temperatur Niederschläge Wind Luftdruck Luftfeuchtigkeit
    00:00 +29°C° 0 mm 3 m/S 751 mmHg 88%
    01:00 +29°C° 0 mm 3 m/S 750 mmHg 88%
    02:00 +29°C° 0 mm 3 m/S 750 mmHg 89%
    03:00 +29°C° 0 mm 4 m/S 750 mmHg 89%
    04:00 +29°C° 0,1 mm 4 m/S 750 mmHg 89%
    05:00 +29°C° 0,1 mm 4 m/S 750 mmHg 89%
    06:00 +29°C° 0 mm 4 m/S 750 mmHg 89%
    07:00 +30°C° 0,7 mm 5 m/S 750 mmHg 83%
    08:00 +33°C° 0,7 mm 5 m/S 750 mmHg 77%
    09:00 +34°C° 0,7 mm 6 m/S 750 mmHg 70%
    10:00 +35°C° 0,8 mm 6 m/S 750 mmHg 66%
    11:00 +36°C° 0,8 mm 6 m/S 750 mmHg 62%
    12:00 +38°C° 0 mm 6 m/S 751 mmHg 56%
    13:00 +38°C° 0,6 mm 6 m/S 750 mmHg 57%
    14:00 +38°C° 0,6 mm 6 m/S 750 mmHg 58%
    15:00 +36°C° 0,6 mm 7 m/S 749 mmHg 60%
    16:00 +35°C° 0 mm 6 m/S 749 mmHg 64%
    17:00 +34°C° 0 mm 6 m/S 749 mmHg 69%
    18:00 +33°C° 0 mm 4 m/S 749 mmHg 74%
    19:00 +32°C° 0 mm 4 m/S 750 mmHg 77%
    20:00 +32°C° 0 mm 4 m/S 750 mmHg 79%
    21:00 +30°C° 0 mm 4 m/S 751 mmHg 82%
    22:00 +30°C° 0,1 mm 4 m/S 751 mmHg 83%
    23:00 +30°C° 0,1 mm 4 m/S 751 mmHg 84%

    Morgen, 27 Juni, Dienstag

    Zeit Temperatur Niederschläge Wind Luftdruck Luftfeuchtigkeit
    00:00 +30°C° 0,1 mm 4 m/S 752 mmHg 85%
    01:00 +30°C° 0 mm 4 m/S 751 mmHg 85%
    02:00 +29°C° 0 mm 4 m/S 751 mmHg 85%
    03:00 +29°C° 0 mm 4 m/S 751 mmHg 86%
    04:00 +29°C° 0 mm 4 m/S 751 mmHg 86%
    05:00 +29°C° 0 mm 4 m/S 751 mmHg 86%
    06:00 +29°C° 0 mm 4 m/S 751 mmHg 86%
    07:00 +30°C° 0 mm 4 m/S 751 mmHg 80%
    08:00 +33°C° 0 mm 5 m/S 752 mmHg 75%
    09:00 +34°C° 0 mm 6 m/S 752 mmHg 69%
    10:00 +34°C° 0,1 mm 6 m/S 752 mmHg 66%
    11:00 +35°C° 0,1 mm 7 m/S 751 mmHg 63%
    12:00 +36°C° 0,1 mm 7 m/S 751 mmHg 60%
    13:00 +36°C° 0 mm 7 m/S 751 mmHg 60%
    14:00 +36°C° 0 mm 7 m/S 750 mmHg 59%
    15:00 +36°C° 0 mm 6 m/S 749 mmHg 58%
    16:00 +35°C° 0 mm 6 m/S 749 mmHg 62%
    17:00 +35°C° 0 mm 6 m/S 749 mmHg 65%
    18:00 +34°C° 0 mm 5 m/S 749 mmHg 69%
    19:00 +33°C° 0 mm 5 m/S 750 mmHg 73%
    20:00 +32°C° 0 mm 5 m/S 750 mmHg 77%
    21:00 +30°C° 0 mm 4 m/S 751 mmHg 81%
    22:00 +30°C° 0 mm 4 m/S 751 mmHg 82%
    23:00 +30°C° 0 mm 4 m/S 751 mmHg 83%

    übermorgen, 28 Juni, Mittwoch

    Zeit Temperatur Niederschläge Wind Luftdruck Luftfeuchtigkeit
    00:00 +30°C° 0 mm 4 m/S 752 mmHg 84%
    01:00 +30°C° 0 mm 4 m/S 751 mmHg 85%
    02:00 +29°C° 0 mm 4 m/S 751 mmHg 86%
    03:00 +29°C° 0 mm 3 m/S 751 mmHg 87%
    04:00 +29°C° 0,2 mm 3 m/S 751 mmHg 88%
    05:00 +29°C° 0,2 mm 3 m/S 751 mmHg 88%
    06:00 +29°C° 0,2 mm 3 m/S 751 mmHg 88%
    07:00 +32°C° 0,5 mm 4 m/S 751 mmHg 81%
    08:00 +33°C° 0,5 mm 4 m/S 752 mmHg 74%
    09:00 +34°C° 0,5 mm 5 m/S 752 mmHg 67%
    10:00 +35°C° 0,4 mm 5 m/S 752 mmHg 64%
    11:00 +36°C° 0,4 mm 5 m/S 752 mmHg 60%
    12:00 +38°C° 0,4 mm 6 m/S 751 mmHg 57%
    13:00 +38°C° 0,3 mm 6 m/S 751 mmHg 57%
    14:00 +38°C° 0,3 mm 6 m/S 750 mmHg 58%
    15:00 +36°C° 0,3 mm 6 m/S 750 mmHg 58%
    16:00 +35°C° 0 mm 6 m/S 749 mmHg 62%
    17:00 +34°C° 0 mm 6 m/S 749 mmHg 66%
    18:00 +33°C° 0 mm 5 m/S 749 mmHg 70%
    19:00 +33°C° 0 mm 5 m/S 750 mmHg 74%
    20:00 +32°C° 0 mm 5 m/S 751 mmHg 77%
    21:00 +30°C° 0 mm 4 m/S 751 mmHg 81%
    22:00 +30°C° 0 mm 4 m/S 751 mmHg 82%
    23:00 +30°C° 0 mm 4 m/S 752 mmHg 83%

    29 Juni, Donnerstag

    Zeit Temperatur Niederschläge Wind Luftdruck Luftfeuchtigkeit
    00:00 +30°C° 0 mm 4 m/S 752 mmHg 84%
    01:00 +30°C° 0 mm 4 m/S 751 mmHg 85%
    02:00 +29°C° 0 mm 3 m/S 751 mmHg 86%
    03:00 +29°C° 0 mm 3 m/S 750 mmHg 87%
    04:00 +29°C° 0 mm 3 m/S 750 mmHg 87%
    05:00 +29°C° 0 mm 3 m/S 751 mmHg 87%
    06:00 +29°C° 0 mm 3 m/S 751 mmHg 87%
    07:00 +32°C° 0,1 mm 4 m/S 751 mmHg 81%
    08:00 +33°C° 0,1 mm 5 m/S 751 mmHg 74%
    09:00 +34°C° 0,1 mm 5 m/S 751 mmHg 68%
    10:00 +35°C° 0,1 mm 6 m/S 751 mmHg 65%
    11:00 +36°C° 0,1 mm 6 m/S 751 mmHg 62%
    12:00 +36°C° 0,1 mm 7 m/S 751 mmHg 59%
    13:00 +36°C° 0,3 mm 7 m/S 750 mmHg 60%
    14:00 +36°C° 0,3 mm 7 m/S 749 mmHg 61%
    15:00 +36°C° 0,3 mm 7 m/S 749 mmHg 62%
    16:00 +35°C° 0 mm 7 m/S 748 mmHg 65%
    17:00 +34°C° 0 mm 6 m/S 748 mmHg 69%
    18:00 +33°C° 0 mm 6 m/S 748 mmHg 72%
    19:00 +33°C° 0 mm 5 m/S 749 mmHg 75%
    20:00 +32°C° 0 mm 5 m/S 749 mmHg 78%
    21:00 +30°C° 0 mm 4 m/S 750 mmHg 81%
    22:00 +30°C° 0 mm 4 m/S 750 mmHg 82%
    23:00 +30°C° 0 mm 4 m/S 750 mmHg 84%

    30 Juni, Freitag

    Zeit Temperatur Niederschläge Wind Luftdruck Luftfeuchtigkeit
    00:00 +30°C° 0 mm 4 m/S 750 mmHg 85%
    01:00 +30°C° 0 mm 4 m/S 749 mmHg 86%
    02:00 +29°C° 0 mm 4 m/S 749 mmHg 86%
    03:00 +29°C° 0 mm 3 m/S 749 mmHg 87%
    04:00 +29°C° 0,2 mm 3 m/S 749 mmHg 87%
    05:00 +29°C° 0,2 mm 3 m/S 749 mmHg 87%
    06:00 +29°C° 0,2 mm 3 m/S 749 mmHg 88%
    07:00 +32°C° 0 mm 4 m/S 749 mmHg 81%
    08:00 +33°C° 0 mm 5 m/S 749 mmHg 75%
    09:00 +34°C° 0 mm 5 m/S 750 mmHg 68%
    10:00 +35°C° 0 mm 6 m/S 749 mmHg 65%
    11:00 +35°C° 0 mm 6 m/S 749 mmHg 62%
    12:00 +36°C° 0 mm 6 m/S 749 mmHg 59%
    13:00 +36°C° 0,1 mm 7 m/S 748 mmHg 60%
    14:00 +36°C° 0,1 mm 7 m/S 748 mmHg 60%
    15:00 +36°C° 0,1 mm 7 m/S 748 mmHg 60%
    16:00 +35°C° 0 mm 6 m/S 748 mmHg 64%
    17:00 +34°C° 0 mm 6 m/S 748 mmHg 67%
    18:00 +33°C° 0 mm 6 m/S 748 mmHg 70%
    19:00 +33°C° 0 mm 5 m/S 748 mmHg 73%
    20:00 +32°C° 0 mm 5 m/S 749 mmHg 77%
    21:00 +30°C° 0 mm 5 m/S 749 mmHg 80%
    22:00 +30°C° 0 mm 5 m/S 749 mmHg 81%
    23:00 +30°C° 0 mm 4 m/S 749 mmHg 82%

    1 Juli, Samstag

    Zeit Temperatur Niederschläge Wind Luftdruck Luftfeuchtigkeit
    00:00 +30°C° 0 mm 4 m/S 749 mmHg 83%
    01:00 +30°C° 0,1 mm 4 m/S 749 mmHg 84%
    02:00 +29°C° 0,1 mm 4 m/S 748 mmHg 84%
    03:00 +29°C° 0,1 mm 4 m/S 748 mmHg 85%
    04:00 +29°C° 0 mm 4 m/S 748 mmHg 85%
    05:00 +29°C° 0 mm 4 m/S 748 mmHg 85%
    06:00 +29°C° 0 mm 4 m/S 748 mmHg 85%
    07:00 +32°C° 0 mm 4 m/S 749 mmHg 78%
    08:00 +33°C° 0 mm 5 m/S 749 mmHg 70%
    09:00 +35°C° 0 mm 5 m/S 749 mmHg 63%
    10:00 +36°C° 0 mm 6 m/S 749 mmHg 60%
    11:00 +38°C° 0 mm 6 m/S 749 mmHg 57%
    12:00 +38°C° 0 mm 6 m/S 749 mmHg 53%
    13:00 +38°C° 0 mm 7 m/S 748 mmHg 54%
    14:00 +38°C° 0 mm 7 m/S 748 mmHg 54%
    15:00 +38°C° 0 mm 7 m/S 747 mmHg 55%
    16:00 +36°C° 0 mm 7 m/S 747 mmHg 58%
    17:00 +35°C° 0 mm 6 m/S 748 mmHg 62%
    18:00 +34°C° 0 mm 6 m/S 748 mmHg 65%
    19:00 +33°C° 0 mm 6 m/S 748 mmHg 69%
    20:00 +33°C° 0 mm 6 m/S 749 mmHg 73%
    21:00 +32°C° 0 mm 6 m/S 750 mmHg 77%
    22:00 +32°C° 0,2 mm 6 m/S 750 mmHg 77%
    23:00 +32°C° 0,2 mm 6 m/S 750 mmHg 78%
    Mehr zeigen